Flag for Norway Weather past 2 weeks in Kolbotn, Norway

Now
48 °F

Partly sunny.


Feels Like: 40 °F
Forecast: 38 / 51 °F
Wind: 30 mph from Southeast

Location: Oslo / Fornebu

Current Time: May 4, 2015 at 5:09:28 PM

Latest Report: May 4, 2015 at 4:20 PM


Visibility: N/A

Pressure: 29.42 "Hg

Humidity: 87%

Dew point: 45 °F

Location of KolbotnLocation

Historic Weather in Kolbotn — Graph

°F

Kolbotn temperature yesterday

Maximum temperature yesterday: 46 °F (at 6:50 PM)
Minimum temperature yesterday: 39 °F (at 12:50 AM)
Average temperature yesterday: 43 °F

Past Weeks' High & Low Weather Summary

 TemperatureHumidityPressure
High50 °F (Apr 21, 1:50 PM)100% (Apr 20, 5:50 AM)30.48 "Hg (Apr 20, 5:50 AM)
Low37 °F (Apr 24, 7:20 PM)42% (Apr 27, 1:20 PM)29.27 "Hg (Apr 25, 2:50 PM)
Average43 °F73%29.86 "Hg
* Reported Apr 19 3:20 PM — May 4 3:50 PM, Kolbotn, Weather by CustomWeather, © 2015

Note: Actual official high and low records may vary slightly from our data, if they occured in-between our weather recording intervals... More about our weather records

Advertising

Kolbotn weather history for previous 24 hours

 ConditionsComfort  
Time TempWeatherWind HumidityBarometerVisibility
3:50 PM
Mon, May 4
46 °FLow clouds.32 mph93%29.42 "Hg4 mi
3:20 PM46 °FLight rain. Overcast.31 mph87%29.42 "HgN/A
2:50 PM48 °FOvercast.33 mph76%29.42 "HgN/A
2:20 PM48 °FPartly sunny.29 mph76%29.45 "HgN/A
1:50 PM46 °FOvercast.30 mph82%29.45 "HgN/A
1:20 PM46 °FOvercast.29 mph82%29.45 "HgN/A
12:50 PM46 °FOvercast.28 mph76%29.45 "HgN/A
12:20 PM46 °FPartly sunny.25 mph76%29.45 "HgN/A
11:50 AM46 °FOvercast.23 mph76%29.45 "HgN/A
11:20 AM46 °FSprinkles. Overcast.21 mph76%29.45 "HgN/A
10:50 AM46 °FLight rain. Overcast.14 mph76%29.45 "HgN/A
10:20 AM48 °FOvercast.13 mph71%29.45 "HgN/A
9:50 AM46 °FOvercast.10 mph76%29.45 "HgN/A
9:20 AM46 °FOvercast.13 mph76%29.47 "HgN/A
8:50 AM46 °FPartly sunny.12 mph71%29.47 "HgN/A
8:20 AM46 °FOvercast.15 mph71%29.47 "HgN/A
7:50 AM46 °FOvercast.15 mph71%29.47 "HgN/A
7:20 AM48 °FPartly sunny.18 mph58%29.47 "HgN/A
6:50 AM48 °FPartly sunny.24 mph54%29.47 "HgN/A
6:20 AM46 °FLight rain. Partly sunny.32 mph62%29.50 "HgN/A
5:50 AM48 °FPassing clouds.23 mph58%29.50 "HgN/A
5:20 AM46 °FPassing clouds.24 mph76%29.50 "HgN/A
4:50 AM46 °FOvercast.28 mph71%29.53 "HgN/A
4:20 AM46 °FOvercast.26 mph71%29.53 "HgN/A
3:50 AM46 °FOvercast.28 mph71%29.53 "HgN/A
3:20 AM46 °FOvercast.29 mph71%29.56 "HgN/A
2:50 AM46 °FOvercast.30 mph71%29.56 "HgN/A
2:20 AM46 °FOvercast.32 mph66%29.56 "HgN/A
1:50 AM46 °FOvercast.32 mph71%29.59 "HgN/A
1:20 AM46 °FOvercast.35 mph71%29.59 "HgN/A
12:50 AM46 °FOvercast.35 mph71%29.59 "HgN/A
12:20 AM46 °FOvercast.36 mph71%29.59 "HgN/A
11:50 PM
Sun, May 3
46 °FOvercast.36 mph71%29.62 "HgN/A
11:20 PM46 °FPassing clouds.35 mph71%29.62 "HgN/A
10:50 PM46 °FOvercast.35 mph71%29.65 "HgN/A
10:20 PM46 °FPartly cloudy.35 mph71%29.68 "HgN/A
9:50 PM46 °FScattered clouds.32 mph71%29.68 "HgN/A
9:20 PM46 °FCool.32 mph66%29.68 "HgN/A
8:50 PM46 °FCool.30 mph62%29.71 "HgN/A
8:20 PM46 °FCool.28 mph66%29.71 "HgN/A
7:50 PM45 °FQuite cool.26 mph71%29.74 "HgN/A
7:20 PM46 °FCool.26 mph66%29.74 "HgN/A
6:50 PM46 °FCool.26 mph66%29.74 "HgN/A
6:20 PM45 °FQuite cool.26 mph66%29.74 "HgN/A
5:50 PM45 °FQuite cool.26 mph66%29.77 "HgN/A
5:20 PM45 °FQuite cool.26 mph66%29.77 "HgN/A
Weather by CustomWeather, © 2015

See weather overviewHow to use our weather pages